GALAXY 31 (G-31)

Last updated on Sun Apr 12 2026 00:02:56 GMT+0000 (Coordinated Universal Time)

1 54243U 22153A 26101.49668396 .00000015 00000+0 00000+0 0 9996 2 54243 0.0193 134.1457 0001465 259.0274 224.3452 1.00271571 6465
UTC large
Height (km)
Speed (km/s)
/
Latitude / Longitude
Inclination (degrees)
Orbital Period (minutes)
Azimuth
Elevation
Range (km)
Doppler Factor

Next 0 passes for location: London (51.5072 / 0.1276)

Sorry there are no passes over London.
GALAXY 31 (G-31)